SL-14 R/B, 18794

Orbit data source: Space-Track

SL-14 R/B, 18794 is space debris in LEO originally from a launch on Fri, 15 Jan 1988 UTC launched from the Plesetsk Missile And Space Complex (PKMTR). Debris objects in space refer to the collection of defunct objects orbiting the Earth. Examples of debris include non-operational satellites, rocket bodies, and fragments generated from explosions, collisions, or faulty payload assembly.

Loading next visibility...
Identifier
18794, 1988-002G
Orbit
LEO
Country
Flag of CISCIS
Related business
Manufacturer
Yuzhnoe
Mission
Spacecraft
Bus & Motor
S5M, Unknown motor
Mass
1,600 kg wet, 1,600 kg dry
Launch date (UTC)
1988-01-15 (38 years ago)
Launch vehicle
Unknown
Launch site
Plesetsk Missile And Space Complex (PKMTR)
Object type
Payload
Rocket body
Debris
Shape & HBR
Cyl, 1.4 m
Radar Cross Section
7.351 m², Large (>1 m²)

Expand to show TLE details & history
Last TLE update: 8 hours ago

TLE from 8 hours ago
0 SL-14 R/B
1 18794U 88002G   25351.91018794 -.00000005  00000-0 -92307-4 0  9994
2 18794  82.6003 136.5805 0038021 160.3392 316.3130 12.55584263737999
Epoch: 2025-12-17T21:50Z
TLE epoch observation values (Epoch: 2025-12-17T21:50:40.238Z)
Latitude
62.78671°
Longitude
-112.41569°
Altitude
1,430.52 km
Speed
7.161 km/s
True Right ascension
20h 08m 06s
True Declination
62° 39' 31"
Sunlit
Object was in daylight at epoch
Visualization orbit readout
Latitude
Unknown
Longitude
Unknown
Altitude
Unknown
Speed
Unknown
Apparent Right ascension
Unknown
Apparent Declination
Unknown
Sunlit
N/A
Visualization observer readout
Local Sidereal Time
04:48:20
Azimuth
Unknown
Elevation
Unknown
Doppler factor
Unknown
Orbital elements
Apogee altitude
1,468.273 km
Perigee altitude
1,408.834 km
Semi-major axis
7,816.69 km
Eccentricity
0.0038
Inclination
82.6003°
RAAN
136.5805°
Arg. of periapsis
160.3392°
True anomaly
316.01103°
Mean anomaly
316.313°
Eccentric anomaly
316.16212°
Mean motion
3.14057 °/min
Orbital period
114.63 mins
BSTAR
-0.000092307
Loading maneuver chart data...
Computing Atmospheric mass density...
Loading historical data...
Loading historical data...
Loading historical data...
Loading historical data...
Loading historical data...
Loading historical data...
Loading historical data...

Documentation

Showing up to 5 results
|